HODOYOSHI-1 (40299 NORAD) Tracking and Keplerian Element Data

This shows tracking and keplerian element data for the satellite.

Feedback or suggestion? Click here.




ElementValue
Catalog40299
NameHODOYOSHI-1
Epoch Orbit44698
Epoch Day325.15208946
Epoch Year2022
RAAN28.6634
Inclination97.226
Eccentricity0.0010385
Argument of Perigee305.8651
Mean Anonmoly138.0073
Mean Motion15.28677686
Decay Rate5.412E-05
L11 40299U 14070B 22325.15208946 .00005412 00000+0 19641-3 0 9990
L22 40299 97.2260 28.6634 0010385 305.8651 138.0073 15.28677686446985



Live tracking and technical data element details for HODOYOSHI-1 (NORAD 40299). HODOYOSHI-1 can be tracked NOW for your location showing map with azimuth and elevation plus other details from your city location.







IsCatalogInMostPopularTable: catalog: 40299, numindb: 386
Update: records affected: 1



GetName: 40299 HODOYOSHI-1

Hit Count: updated at: Mon, 28 Nov 2022 05:27:05 GMT